This is the latest recevied weather packets stored in our database for station/object DJ2DS-13. If no packets are shown the sender has not sent any weather packets the latest 10 day(s).
| Time | Temp. | Humidity | Pressure | Rain* | Wind** | Luminosity | Snow |
|---|---|---|---|---|---|---|---|
| 1777709010 | 18.89° C | 52% | 1016.5 hPa | 0 mm | - | 513 W/m² | - |
| 1777708710 | 18.89° C | 52% | 1016.5 hPa | 0 mm | - | 503 W/m² | - |
| 1777708410 | 18.33° C | 54% | 1016.5 hPa | 0 mm | - | 491 W/m² | - |
| 1777708111 | 18.33° C | 55% | 1016.5 hPa | 0 mm | - | 480 W/m² | - |
| 1777707806 | 17.78° C | 55% | 1016.6 hPa | 0 mm | - | 470 W/m² | - |
| 1777707506 | 17.78° C | 54% | 1016.7 hPa | 0 mm | - | 457 W/m² | - |
| 1777707208 | 17.78° C | 55% | 1016.6 hPa | 0 mm | - | 445 W/m² | - |
| 1777706905 | 17.22° C | 57% | 1016.7 hPa | 0 mm | - | 433 W/m² | - |
| 1777706604 | 17.22° C | 56% | 1016.7 hPa | 0 mm | - | 420 W/m² | - |
| 1777706301 | 17.22° C | 57% | 1016.8 hPa | 0 mm | - | 412 W/m² | - |
| 1777706000 | 16.67° C | 57% | 1016.8 hPa | 0 mm | - | 399 W/m² | - |
| 1777705699 | 16.67° C | 56% | 1016.8 hPa | 0 mm | - | 387 W/m² | - |
| 1777705399 | 16.67° C | 60% | 1016.8 hPa | 0 mm | - | 375 W/m² | - |
| 1777705097 | 16.11° C | 58% | 1016.9 hPa | 0 mm | - | 360 W/m² | - |
| 1777704798 | 16.11° C | 58% | 1016.8 hPa | 0 mm | - | 348 W/m² | - |
| 1777704499 | 16.11° C | 58% | 1016.9 hPa | 0 mm | - | 336 W/m² | - |
| 1777704198 | 15.56° C | 61% | 1016.8 hPa | 0 mm | - | 322 W/m² | - |
| 1777703893 | 15.56° C | 61% | 1016.8 hPa | 0 mm | - | 311 W/m² | - |
| 1777703595 | 15° C | 62% | 1017 hPa | 0 mm | - | 297 W/m² | - |
| 1777703295 | 15° C | 64% | 1016.9 hPa | 0 mm | - | 285 W/m² | - |
| 1777702994 | 14.44° C | 64% | 1016.9 hPa | 0 mm | - | 273 W/m² | - |
| 1777702694 | 14.44° C | 66% | 1016.8 hPa | 0 mm | - | 253 W/m² | - |
| 1777702395 | 14.44° C | 65% | 1017 hPa | 0 mm | - | 204 W/m² | - |
| 1777702094 | 13.89° C | 66% | 1017 hPa | 0 mm | - | 193 W/m² | - |
| 1777701793 | 13.89° C | 66% | 1017.1 hPa | 0 mm | - | 213 W/m² | - |
* Rain latest hour (hover to see other rain measurements)
** Current wind speed in m/s (hover to see current wind gust speed)